Location: Malanoce
(44.2500°N, 7.4667°E)
Time: 08:35:27
(UTC+00:00)

BlueWalker 3 - Pass Details

Date: 22 January 2026
Orbit: 450 x 461 km, 53.2° (Epoch: 11 February)

Event Time Altitude Azimuth Distance (km) Brightness Sun altitude
Rises 18:20:49 0° 241° (WSW) 2,448 6.7 -20.4°
Reaches altitude 10° 18:22:57 10° 244° (WSW) 1,577 5.5 -20.7°
Maximum altitude 18:26:29 68° 328° (NNW) 488 1.8 -21.4°
Enters shadow 18:26:31 68° 333° (NNW) 489 1.8 -21.4°
